Location: Piotrkow Trybunalski
(51.4000°N, 19.6830°E)
Time: 18:30:14
(UTC+02:00)

Transit 4A - Visible Passes

Search period start: 15 September 2024 00:00
Search period end: 25 September 2024 00:00
Orbit: 866 x 976 km, 66.8° (Epoch: 14 September)

Date Brightness Start Highest point End Pass type
(mag) Time Alt. Az. Time Alt. Az. Time Alt. Az.
15 Sep 8.6 03:23:27 33° SSE 03:25:24 43° ESE 03:31:02 10° NE visible
15 Sep 8.2 05:06:58 15° WSW 05:11:42 49° NW 05:17:37 10° NNE visible
16 Sep 10.2 01:49:01 11° ESE 01:49:11 11° E 01:51:03 10° E visible
16 Sep 8.1 03:32:31 43° S 03:34:15 60° ESE 03:40:10 10° NE visible
16 Sep 8.6 05:16:02 13° WSW 05:20:53 39° NW 05:26:36 10° NNE visible
17 Sep 9.8 01:58:03 17° E 01:58:03 17° E 02:01:29 10° ENE visible
17 Sep 7.8 03:41:33 50° SSW 03:43:10 81° SE 03:49:14 10° NE visible
17 Sep 8.9 05:25:03 11° W 05:30:08 32° NNW 05:35:36 10° NNE visible
18 Sep 9.4 02:07:02 24° E 02:07:02 24° E 02:11:08 10° ENE visible
18 Sep 7.8 03:50:32 50° SW 03:52:09 77° NW 03:58:15 10° NE visible
18 Sep 9.1 05:34:26 10° W 05:39:28 27° NNW 05:44:38 10° NNE visible
19 Sep 9.0 02:15:59 33° E 02:15:59 33° E 02:20:30 10° NE visible
19 Sep 8.0 03:59:29 43° W 04:01:13 59° NW 04:07:15 10° NE visible
19 Sep 9.4 05:44:04 10° WNW 05:48:49 24° NNW 05:53:42 10° NNE visible
20 Sep 8.6 02:24:54 44° E 02:24:54 44° E 02:29:42 10° NE visible
20 Sep 8.4 04:08:24 35° W 04:10:21 46° NW 04:16:13 10° NNE visible
21 Sep 8.3 02:33:47 56° ENE 02:33:47 56° ENE 02:38:48 10° NE visible
21 Sep 8.7 04:17:17 28° WNW 04:19:33 37° NW 04:25:12 10° NNE visible
22 Sep 10.2 00:59:09 14° ENE 00:59:09 14° ENE 01:00:20 10° ENE visible
22 Sep 8.1 02:42:39 66° NE 02:42:39 66° NE 02:47:50 10° NE visible
22 Sep 9.0 04:26:08 22° WNW 04:28:49 31° NNW 04:34:12 10° NNE visible
23 Sep 10.0 01:07:59 18° ENE 01:07:59 18° ENE 01:09:52 10° NE visible
23 Sep 8.1 02:51:29 64° N 02:51:29 64° N 02:56:51 10° NE visible
23 Sep 9.3 04:34:58 17° WNW 04:38:09 26° NNW 04:43:15 10° NNE visible
24 Sep 9.7 01:16:48 22° ENE 01:16:48 22° ENE 01:19:09 10° NE visible
24 Sep 8.3 03:00:17 54° NNW 03:00:17 54° NNW 03:05:50 10° NE visible
24 Sep 9.5 04:43:46 14° WNW 04:47:32 23° NNW 04:52:21 10° NNE visible
